Regional Weather Roundup
Issued by NWS Wakefield, VA

Home | Current Version | Previous Version | Text Only | Print | Product List | Glossary Off
Versions: 1 2 3 4 5 6 7 8 9 10 11 12 13 14 15 16 17 18 19 20 21 22 23 24 25 26 27

000
ASUS41 KAKQ 261915
RWRAKQ

REGIONAL WEATHER ROUNDUP
NATIONAL WEATHER SERVICE WAKEFIELD VA
300 PM EDT MON JUN 26 2017

Note: "fair" indicates few or no clouds below 12,000 feet with no
significant weather and/or obstructions to visibility. * = Denotes
station may not report precipitation (e.g., rain,snow,etc.),
thunder or fog.

VAZ042-051-052>054-056-262000-
NORTHERN VIRGINIA

CITY           SKY/WX    TMP DP  RH WIND       PRES   REMARKS
WASH NATIONAL  MOSUNNY   82  45  27 VRB5      30.05F
DULLES         MOSUNNY   79  47  32 SW9       30.06F
FORT BELVOIR   SUNNY     82  45  26 W5G18     30.05F
QUANTICO       PTSUNNY   82  54  37 S7        30.05F
FREDERICKSBRG* MOSUNNY   82  53  36 SW7       30.04F
STAFFORD*      PTSUNNY   80  46  30 W5        30.09F
WARRENTON      SUNNY     83  41  22 W3        30.05F
CULPEPER*      MOSUNNY   80  50  34 SW6       30.06F
MANASSAS*      MOSUNNY   80  48  32 W7        30.06F
LEESBURG*      CLOUDY    79  52  38 NW7       30.07S
WINCHESTER     PTSUNNY   77  46  33 S6        30.05F
FRONT ROYAL*   MOCLDY    79  48  34 E5        30.04F
LURAY*         PTCLDY    77  48  36 SW5       30.06F
$$

VAZ048-049-060>072-079>083-262000-
CENTRAL AND SOUTH CENTRAL VIRGINIA

CITY           SKY/WX    TMP DP  RH WIND       PRES   REMARKS
RICHMOND       MOSUNNY   80  53  39 S7G18     30.05F
CHESTERFIELD*  FAIR      82  55  39 SW7       30.06F
PETERSBURG*    PTSUNNY   81  53  37 CALM      30.06F
HANOVER        MOSUNNY   82  53  36 W9        30.06F
TAPPAHANNOCK*  MOSUNNY   82  45  27 CALM      30.06F
QUINTON*       FAIR      80  56  43 W7        30.05F
CHARLOTTSVILLE SUNNY     81  48  31 SW10      30.06F
GORDONSVILLE*  PTCLDY    80  48  32 S3        30.05F
ORANGE*        MOSUNNY   81  50  34 SW6       30.05F
LOUISA*        MOSUNNY   84  54  34 SW7       30.05F
BUMPASS*       FAIR      78  52  40 CALM      30.06F
FARMVILLE*     SUNNY     82  36  19 S8        30.06F
CREWE*         FAIR      81  38  21 SW6       30.07F
FORT PICKETT*  MOCLDY    80  42  25 SW6       30.07F
CHASE CITY*    FAIR      80  53  39 W7        30.08F
CLARKSVILLE*   FAIR      81  52  36 W5        30.08S
SOUTH HILL*    MOSUNNY   82  52  36 SW6       30.13F
LAWRENCEVILLE* FAIR      81  54  38 SW7       30.07F
EMPORIA*       CLOUDY    81  52  36 S8        30.08F
$$

VAZ088>098-262000-
SOUTHEAST VIRGINIA

CITY           SKY/WX    TMP DP  RH WIND       PRES   REMARKS
NORFOLK        SUNNY     82  55  39 E8        30.06F
VIRGINIA BEACH PTSUNNY   80  58  46 E12       30.06S
NORFOLK NAVAL  MOSUNNY   84  54  35 VRB5      30.07F
WEST POINT*    PTSUNNY   81  53  37 CALM      30.07S
SALUDA*        MOCLDY    79  61  53 E5        30.05F
NEWPORT NEWS   SUNNY     83  54  36 VRB5      30.06F
LANGLEY AFB    MOSUNNY   81  59  46 E7        30.05F
FORT EUSTIS    MOSUNNY   86  55  34 S5        30.04F
WILLIAMSBURG*  MOSUNNY   86  55  35 S5        30.06F
HR EXEC AP*    FAIR      84  54  34 N3        30.03S
FRANKLIN*      MOSUNNY   82  52  34 SW5       30.07S
US460-WAKEFLD  MOSUNNY   82  55  39 SW6       30.06F
$$

VAZ020-022-025-037-045-262000-
WEST CENTRAL AND SOUTHWEST VIRGINIA

CITY           SKY/WX    TMP DP  RH WIND       PRES   REMARKS
STAUNTON*      MOSUNNY   76  49  38 S5        30.08F
WAYNESBORO*    PTCLDY    76  50  41 SW12      30.09F
HOT SPRINGS VA MOSUNNY   68  28  22 NW7G18    30.18F
LYNCHBURG      SUNNY     78  48  34 VRB5      30.10F
DANVILLE       MOSUNNY   79  53  40 VRB7G20   30.09F
SOUTH BOSTON*  FAIR      81  49  32 NW10G18   30.09F
MARTINSVILLE   MOSUNNY   78  51  38 CALM      30.13F
ROANOKE        PTSUNNY   79  50  36 NW8       30.11F
BLACKSBURG     PTSUNNY   72  48  42 W5        30.17F
DUBLIN*        MOSUNNY   76  36  23 W8G18     30.15F
MARION*        PTSUNNY   72  46  38 W8G20     30.19F
HILLSVILLE*    PTSUNNY   71  40  32 CALM      30.17F
RICHLANDS*     FAIR      72  45  38 SW10      30.17F
WISE*          PTSUNNY   72  45  37 NW9G16    30.20S
ABINGDON*      CLOUDY    75  50  41 W9G18     30.17F
$$

MDZ021>025-VAZ099-100-262000-
SOUTHERN MARYLAND AND THE DELMARVA PENINSULA

CITY           SKY/WX    TMP DP  RH WIND       PRES   REMARKS
PATUXENT RIVER MOSUNNY   79  55  43 E10       30.05F
BAY BRIDGE APT SUNNY     81  46  30 NW6       30.05S
LEONARDTOWN    SUNNY     79  50  36 SW7       30.07F
DOVER          MOSUNNY   81  53  37 W6        30.02S
GEORGETOWN     MOSUNNY   83  46  27 W10G16    30.04F
EASTON         MOSUNNY   81  43  26 NW9       30.08F
CAMBRIDGE      SUNNY     81  50  34 W6        30.04F
SALISBURY      SUNNY     82  52  35 SW9       30.04F
OCEAN CITY     SUNNY     78  57  48 VRB7      30.05F
WALLOPS ISLAND MOSUNNY   80  57  45 S13       30.06S
ACCOMACK*      PTSUNNY   78  56  46 SE6       30.06S
$$

NCZ012>017-030>032-262000-
NORTH CENTRAL AND EASTERN NORTH CAROLINA

CITY           SKY/WX    TMP DP  RH WIND       PRES   REMARKS
ROANOKE RAPIDS FAIR      82  55  39 SW5       30.08S
RALEIGH        MOSUNNY   83  52  34 W5        30.09F
ELIZABETH CITY SUNNY     82  60  47 SE13      30.07S
AHOSKIE*         N/A     80  52  36 S5        30.08F
EDENTON*       SUNNY     84  51  32 CALM      30.08F
CURRITUCK*     SUNNY     80  58  45 SE6       30.08F HAZE
KILL DEVIL HLS SUNNY     77  62  58 NE5       30.07F
MANTEO         SUNNY     79  59  50 E9        30.08F
CAPE HATTERAS  NOT AVBL
TARBORO*       NOT AVBL
GOLDSBORO      SUNNY     83  55  37 S5        30.07F
WASHINGTON     SUNNY    N/A N/A N/A CALM      30.08S
GREENVILLE     SUNNY     84  52  32 CALM      30.09F
NEW BERN       PTSUNNY   81  63  54 E5        30.09F
WILMINGTON     CLOUDY    83  61  47 N7        30.07F
$$

VAZ048-262000-
ELSEWHERE

CITY           SKY/WX    TMP DP  RH WIND       PRES   REMARKS
HARRISBURG PA  MOSUNNY   76  47  35 W7G18     30.02F
BALTIMORE      PTSUNNY   80  47  31 SW9       30.04F
ANNAPOLIS      PTSUNNY   78  50  37 N7        30.04F
ANDREWS AFB    SUNNY     82  44  26 W7G21     30.05F
PHILADELPHIA   MOSUNNY   80  45  28 SW9       30.02F
HENDERSON NC   SUNNY     78  49  36 SW8       30.09F
GREENSBORO     MOSUNNY   81  54  39 NW10      30.10F
ROCKY MOUNT    SUNNY     84  51  31 NW6       30.08F
$$

VAZ100-262000-
MARINE

STATION/POSITION TIME  TEMP    WIND        PRES    WAVE   SWELL
                       AIR SEA DIR/SP/G            HT/PER HT/PER
                 (UTC) (F)     (DEG/KT/KT) (MB)    (FT/S) (FT/S)
BRANDYWINE LGT   1842   72     160/  9/ 10 1017.5F
CAPE MAY NJ      1848   76 69  210/  3/  6 1016.9F
LEWES DE         1842   76 72  120/ 10/ 13 1017.0F
15NM E FENWICK I 1850   72 72  160/  8/ 10 1018.0F   1/ 7   2/ 7
OCEAN-CITY-INLET 1842   74 68  190/  6/  8 1017.9F
WACHAPREAGUE VA  1842   77 82  130/  8/ 10 1017.8F
THOMAS POINT MD  1900   78 78  280/ 10/ 12   N/A
GOOSES REEF MD   1900   78 80  140/  6/  8 1018.3    0
COVE POINT MD    1842   76     180/  7/ 10 1018.2F
SOLOMONS ISLAND  1842   77 79  130/  6/  7   N/A
BISHOPS HEAD MD  1842   78 83  270/  2/  5 1017.9F
PINEY POINT MD   1842          350/  5/  6   N/A
POTOMAC MD       1900   77 80  170/  6/ 10 1016.8    0
CAMBRIDGE MD     1842   83 83              1018.2F
LEWISETTA VA     1842   78 80   80/  5/  7 1017.5F
RAPPAHANNOCK LGT 1842          150/  1/  2 1018.6F
STINGRAY PT      1900   77 81  160/  6/  8 1018.2    1
YORK RVR RNG VA  1842   77     140/  8/  9 1018.3F
YORKTOWN VA      1842   79 79   90/  7/  9 1017.6F
JAMESTOWN VA     1900   80 85   CALM  /  2   N/A     0
DOMINION TERM VA 1842   79     160/  2/  3 1018.1F
KIPTOPEKE VA     1842      75  300/  3/  4   N/A
CHES BAY BRIDGE  1842   76 74   80/  7/  8 1017.9F
CAPE HENRY VA    1842   76      90/  7/  8   N/A
WILLOUBY STN VA  1842   77      70/  6/  7 1017.9F
S CRANEY ISL VA  1842   79      10/  8/ 10 1017.6F
CAPE HENRY BUOY  1900      74                N/A     1/ 8
1ST LANDING BUOY 1900   77 76              1018.1    1
CAPE CHARLES BUO 1851      74                N/A     1/ 8
64NM E OF VA BCH 1850   74 74   80/  4/  6 1019.0F   2/ 8   2/ 8
DUCK PIER NC     1842   76 73   70/  4/  5 1018.2F
44100 DUCK FRF   1805      73                N/A     1/ 8
OREGON INLET NC  1842   76 72   30/  8/ 10 1018.5F
HATTERAS NC      1842   80 77   60/  7/ 11 1018.2F
DIAMOND SHLS NC  1850   78 81   30/  8/ 12 1018.0F   2/ 8   2/ 8
CAPE LOOKOUT NC  1900   78     110/  4/  5 1017.9F
$$




USA.gov is the U.S. government's official web portal to all federal, state and local government web resources and services.